Вернуться в каталог

QIANFAN-222

АктивенСвязьPO
NORAD 69851·PAYLOAD·🇨🇳 China

Запущен Jul 5, 2026 с Wenchang Space Launch Site

Loading…

Ближайшие Пролёты (ближайшие 24 часа)

TLE

СвежийSource: Space-Track

Эпоха: Sep 14, 2026, 12:26 UTC

1 69851U 26155D   26257.51852153  .00000015  00000-0  34735-5 0  9993
2 69851  89.0083  54.3503 0034851  26.4771 333.8155 13.57781050  9900

Отслеживайте QIANFAN-222 в реальном времени с AllMySat

Download on the App Store